Flag for Canada Weather past 2 weeks in Burlington, Ontario, Canada

Now
57 °F

Refreshingly cool.


Feels Like: 57 °F
Forecast: 41 / 67 °F
Wind: 5 mph from Southwest

Location: Burlington Piers


UV Index: 5 (Moderate)

Visibility: N/A


Pressure: 30.01 "Hg

Humidity: 42%

Dew point: 34 °F

Location of BurlingtonLocation

Historic Weather in Burlington

°F

Burlington temperature yesterday

Maximum temperature yesterday: 41 °F (at 12:00 AM)
Minimum temperature yesterday: 36 °F (at 3:00 AM)
Average temperature yesterday: 38 °F

Past Weeks' High & Low Weather Summary

 TemperatureHumidityPressure
High72 °F (Apr 13, 6:00 PM)100% (Apr 15, 6:00 AM)30.55 "Hg (Apr 15, 6:00 AM)
Low25 °F (Apr 16, 5:00 AM)28% (Apr 9, 4:00 PM)29.32 "Hg (Apr 8, 5:00 AM)
Average42 °F69%30.03 "Hg
* Reported Apr 6 9:00 AM — Apr 21 9:00 AM, Burlington, Weather by CustomWeather, © 2014

Note: Actual official high and low records may vary slightly from our data, if they occured in-between our weather recording intervals... More about our weather records

Advertising

Historic Weather Conditions — Data for Previous 24 hours

 ConditionsComfort  
Time TempWeatherWind HumidityBarometerVisibility
9:00 AM
Apr 21
50 °FCool.2 mph49%30.03 "HgN/A
8:00 AM40 °FChilly.2 mph80%30.05 "HgN/A
7:00 AM41 °FQuite cool.2 mph70%30.05 "HgN/A
6:00 AM42 °FQuite cool.1 mph67%30.05 "HgN/A
5:00 AM41 °FQuite cool.1 mph82%30.06 "HgN/A
4:00 AM40 °FChilly.1 mph84%30.08 "HgN/A
3:00 AM41 °FQuite cool.3 mph82%30.09 "HgN/A
2:00 AM41 °FQuite cool.2 mph76%30.11 "HgN/A
1:00 AM40 °FQuite cool.2 mph76%30.13 "HgN/A
12:00 AM40 °FQuite cool.1 mph79%30.15 "HgN/A
11:00 PM
Apr 20
41 °FQuite cool.2 mph78%30.17 "HgN/A
10:00 PM40 °FChilly.5 mph80%30.19 "HgN/A
9:00 PM40 °FChilly.2 mph80%30.19 "HgN/A
8:00 PM40 °FQuite cool.3 mph72%30.20 "HgN/A
7:00 PM39 °FChilly.5 mph82%30.22 "HgN/A
6:00 PM39 °FChilly.3 mph81%30.24 "HgN/A
5:00 PM38 °FChilly.7 mph85%30.26 "HgN/A
4:00 PM38 °FChilly.7 mph87%30.29 "HgN/A
3:00 PM37 °FChilly.9 mph86%30.31 "HgN/A
2:00 PM37 °FChilly.10 mph86%30.33 "HgN/A
1:00 PM37 °FChilly.13 mph86%30.35 "HgN/A
12:00 PM38 °FChilly.12 mph84%30.37 "HgN/A
11:00 AM38 °FChilly.13 mph84%30.38 "HgN/A
10:00 AM38 °FChilly.13 mph78%30.40 "HgN/A
Weather by CustomWeather, © 2014

See weather overview